EJA823 KFXE-KASE

Flight info

Callsign EJA823
Flight time N/A
Altitude 43000
Route HROCK2 SMELZ Q116 JAWJA DCT SZW DCT LIT DCT PER DCT PUB DCT HAREI DCT DBL DCT
Aircraft C700/M-SDE3FGHIRWY/LB1

Departure

Time 2026-04-20 20:05
Airport Fort Lauderdale Executive Airport (KFXE)

Arrival

Time N/A
Airport Aspen-Pitkin County Airport (Sardy Field) (KASE)
Time Latitude Longitude Altitude Speed Heading
2026-04-20 19:50 26.19451 -80.17036 24 ft 0 kts 213°
2026-04-20 20:02 26.19450 -80.17039 22 ft 2 kts 242°
2026-04-20 20:02 26.19481 -80.17079 23 ft 13 kts 323°
2026-04-20 20:02 26.19567 -80.17086 23 ft 12 kts 326°
2026-04-20 20:02 26.19636 -80.17177 24 ft 17 kts 308°
2026-04-20 20:03 26.19713 -80.17282 25 ft 18 kts 308°
2026-04-20 20:03 26.19732 -80.17407 24 ft 19 kts 263°
2026-04-20 20:03 26.19715 -80.17574 21 ft 24 kts 264°
2026-04-20 20:03 26.19697 -80.17772 18 ft 27 kts 263°
2026-04-20 20:04 26.19670 -80.17984 15 ft 25 kts 265°
2026-04-20 20:04 26.19715 -80.18076 13 ft 8 kts 356°
2026-04-20 20:04 26.19758 -80.18073 13 ft 3 kts 45°
2026-04-20 20:04 26.19765 -80.18021 13 ft 11 kts 84°
2026-04-20 20:05 26.19792 -80.17751 17 ft 74 kts 85°
2026-04-20 20:05 26.19884 -80.16865 148 ft 148 kts 81°
2026-04-20 20:05 26.19992 -80.15629 900 ft 173 kts 81°
2026-04-20 20:05 26.20122 -80.14202 1723 ft 196 kts 81°
2026-04-20 20:06 26.20276 -80.12641 2605 ft 211 kts 79°
2026-04-20 20:06 26.20448 -80.10959 3498 ft 225 kts 80°
2026-04-20 20:06 26.20709 -80.09209 4370 ft 233 kts 67°
2026-04-20 20:06 26.21687 -80.07796 5227 ft 236 kts 32°
2026-04-20 20:07 26.23210 -80.07175 6193 ft 231 kts 10°
2026-04-20 20:07 26.24787 -80.06895 7121 ft 230 kts
2026-04-20 20:07 26.26332 -80.07288 7947 ft 234 kts 326°
2026-04-20 20:07 26.27283 -80.08727 8838 ft 236 kts 286°
2026-04-20 20:08 26.27438 -80.10540 9814 ft 234 kts 276°
2026-04-20 20:08 26.27813 -80.12279 10905 ft 229 kts 285°
2026-04-20 20:08 26.28285 -80.13962 11966 ft 227 kts 285°
2026-04-20 20:08 26.28668 -80.15657 12935 ft 225 kts 282°
2026-04-20 20:09 26.29002 -80.17349 13825 ft 223 kts 281°
2026-04-20 20:09 26.29344 -80.19026 14596 ft 221 kts 282°
2026-04-20 20:09 26.29693 -80.20686 15366 ft 219 kts 282°
2026-04-20 20:09 26.30036 -80.22324 16129 ft 215 kts 281°
2026-04-20 20:10 26.30371 -80.23935 16911 ft 211 kts 281°
2026-04-20 20:10 26.30701 -80.25517 17686 ft 207 kts 281°
2026-04-20 20:10 26.31023 -80.27067 18446 ft 203 kts 281°
2026-04-20 20:10 26.31338 -80.28587 19089 ft 200 kts 281°
2026-04-20 20:11 26.31649 -80.30084 19725 ft 197 kts 282°
2026-04-20 20:11 26.31957 -80.31563 20367 ft 195 kts 282°
2026-04-20 20:11 26.32256 -80.33006 21011 ft 193 kts 282°
2026-04-20 20:11 26.32556 -80.34451 21692 ft 191 kts 282°
2026-04-20 20:12 26.32853 -80.35884 22333 ft 189 kts 282°
2026-04-20 20:12 26.33148 -80.37307 22930 ft 188 kts 283°
2026-04-20 20:12 26.33443 -80.38730 23495 ft 192 kts 283°
2026-04-20 20:13 26.34068 -80.41752 24680 ft 206 kts 282°
2026-04-20 20:13 26.34392 -80.43318 25334 ft 209 kts 282°
2026-04-20 20:13 26.34720 -80.44903 26015 ft 211 kts 282°
2026-04-20 20:13 26.35049 -80.46499 26708 ft 211 kts 281°
2026-04-20 20:14 26.35378 -80.48092 27446 ft 211 kts 281°
2026-04-20 20:14 26.35706 -80.49679 28177 ft 210 kts 281°
2026-04-20 20:14 26.36031 -80.51257 28910 ft 208 kts 280°
2026-04-20 20:14 26.36354 -80.52821 29636 ft 206 kts 280°
2026-04-20 20:15 26.36673 -80.54371 30332 ft 204 kts 280°
2026-04-20 20:15 26.36988 -80.55902 30935 ft 202 kts 280°
2026-04-20 20:15 26.37300 -80.57416 31537 ft 199 kts 281°
2026-04-20 20:15 26.37607 -80.58910 32137 ft 196 kts 281°
2026-04-20 20:16 26.37909 -80.60380 32732 ft 193 kts 281°
2026-04-20 20:16 26.38207 -80.61833 33310 ft 191 kts 281°
2026-04-20 20:16 26.38501 -80.63265 33887 ft 188 kts 281°
2026-04-20 20:16 26.38791 -80.64678 34395 ft 186 kts 281°
2026-04-20 20:17 26.39077 -80.66075 34835 ft 184 kts 281°
2026-04-20 20:17 26.39362 -80.67462 35254 ft 183 kts 281°
2026-04-20 20:17 26.39645 -80.68845 35653 ft 183 kts 282°
2026-04-20 20:17 26.39982 -80.70208 36038 ft 183 kts 287°
2026-04-20 20:18 26.40475 -80.71522 36405 ft 185 kts 291°
2026-04-20 20:18 26.41115 -80.72772 36759 ft 187 kts 296°
2026-04-20 20:18 26.41904 -80.73944 37110 ft 191 kts 302°
2026-04-20 20:18 26.42813 -80.75039 37448 ft 193 kts 303°
2026-04-20 20:19 26.43719 -80.76139 37779 ft 193 kts 303°
2026-04-20 20:19 26.44629 -80.77243 38106 ft 194 kts 303°
2026-04-20 20:19 26.45544 -80.78349 38434 ft 194 kts 303°
2026-04-20 20:19 26.46462 -80.79459 38743 ft 195 kts 303°
2026-04-20 20:20 26.47384 -80.80574 38999 ft 196 kts 303°
2026-04-20 20:20 26.48297 -80.81679 39238 ft 197 kts 303°
2026-04-20 20:20 26.49228 -80.82805 39476 ft 198 kts 304°
2026-04-20 20:20 26.50163 -80.83936 39711 ft 199 kts 304°
2026-04-20 20:21 26.51102 -80.85073 39940 ft 200 kts 304°
2026-04-20 20:21 26.52059 -80.86231 40173 ft 201 kts 304°
2026-04-20 20:21 26.53009 -80.87380 40398 ft 202 kts 304°
2026-04-20 20:21 26.53949 -80.88520 40618 ft 203 kts 304°
2026-04-20 20:22 26.54596 -80.89302 40773 ft 203 kts 304°
2026-04-20 20:22 26.55872 -80.90848 41060 ft 205 kts 305°
2026-04-20 20:22 26.56839 -80.92025 41197 ft 209 kts 305°
2026-04-20 20:22 26.57850 -80.93257 41119 ft 219 kts 305°
2026-04-20 20:23 26.58909 -80.94535 41120 ft 229 kts 305°
2026-04-20 20:23 26.60003 -80.95861 41125 ft 237 kts 305°
2026-04-20 20:23 26.61138 -80.97238 41126 ft 245 kts 306°
2026-04-20 20:23 26.62314 -80.98666 41128 ft 254 kts 306°
2026-04-20 20:24 26.63531 -81.00144 41128 ft 263 kts 306°
2026-04-20 20:24 26.64791 -81.01673 41128 ft 272 kts 306°
2026-04-20 20:24 26.66091 -81.03253 41126 ft 281 kts 306°
2026-04-20 20:24 26.67433 -81.04883 41125 ft 289 kts 306°
2026-04-20 20:25 26.68816 -81.06566 41123 ft 298 kts 307°
2026-04-20 20:25 26.70242 -81.08299 41121 ft 307 kts 307°
2026-04-20 20:25 26.72699 -81.11288 41128 ft 321 kts 307°
2026-04-20 20:26 26.75792 -81.15056 41123 ft 337 kts 307°
2026-04-20 20:26 26.79031 -81.19003 41128 ft 352 kts 307°
2026-04-20 20:27 26.82404 -81.23118 41122 ft 366 kts 307°
2026-04-20 20:27 26.85905 -81.27393 41126 ft 379 kts 307°
2026-04-20 20:28 26.89525 -81.31818 41126 ft 391 kts 308°
2026-04-20 20:28 26.93259 -81.36388 41129 ft 404 kts 308°
2026-04-20 20:29 26.95160 -81.38716 41406 ft 400 kts 308°
2026-04-20 20:29 26.97014 -81.40978 42078 ft 391 kts 308°
2026-04-20 20:29 26.98826 -81.43204 42223 ft 393 kts 308°
2026-04-20 20:29 27.00667 -81.45469 42456 ft 393 kts 308°
2026-04-20 20:30 27.02509 -81.47728 42673 ft 392 kts 308°
2026-04-20 20:30 27.04422 -81.49918 42864 ft 395 kts 313°
2026-04-20 20:30 27.06560 -81.51880 43043 ft 399 kts 318°
2026-04-20 20:30 27.08885 -81.53613 43119 ft 404 kts 321°
2026-04-20 20:31 27.13651 -81.57047 43138 ft 410 kts 321°
2026-04-20 20:31 27.18493 -81.60544 43138 ft 417 kts 321°
2026-04-20 20:32 27.23407 -81.64092 43158 ft 424 kts 321°
2026-04-20 20:32 27.28399 -81.67703 43156 ft 429 kts 321°
2026-04-20 20:33 27.33392 -81.71314 43139 ft 423 kts 321°
2026-04-20 20:33 27.38322 -81.74892 43149 ft 422 kts 321°
2026-04-20 20:34 27.43281 -81.78490 43153 ft 426 kts 321°
2026-04-20 20:34 27.48546 -81.81704 43166 ft 436 kts 330°
2026-04-20 20:35 27.54105 -81.84396 43170 ft 434 kts 329°
2026-04-20 20:35 27.59635 -81.87101 43178 ft 432 kts 330°
2026-04-20 20:36 27.65146 -81.89783 43175 ft 430 kts 329°
2026-04-20 20:36 27.70638 -81.92470 43177 ft 431 kts 329°
2026-04-20 20:37 27.76171 -81.95173 43180 ft 435 kts 329°
2026-04-20 20:37 27.81734 -81.97896 43194 ft 436 kts 329°
2026-04-20 20:38 27.87286 -82.00616 43192 ft 434 kts 329°
2026-04-20 20:38 27.92773 -82.03307 43193 ft 432 kts 329°
2026-04-20 20:39 27.98275 -82.06009 43189 ft 431 kts 329°
2026-04-20 20:39 28.03793 -82.08723 43192 ft 434 kts 329°
2026-04-20 20:40 28.09196 -82.11717 43195 ft 430 kts 322°
2026-04-20 20:40 28.14075 -82.15552 43201 ft 425 kts 319°
2026-04-20 20:41 28.18907 -82.19386 43192 ft 423 kts 319°
2026-04-20 20:41 28.23703 -82.23228 43189 ft 423 kts 319°
2026-04-20 20:42 28.28532 -82.27084 43193 ft 426 kts 319°
2026-04-20 20:42 28.33385 -82.30970 43198 ft 428 kts 319°
2026-04-20 20:43 28.38245 -82.34861 43207 ft 426 kts 319°
2026-04-20 20:43 28.43076 -82.38738 43204 ft 424 kts 319°
2026-04-20 20:44 28.47882 -82.42599 43204 ft 423 kts 319°
2026-04-20 20:44 28.52692 -82.46466 43206 ft 424 kts 319°
2026-04-20 20:45 28.57474 -82.50315 43212 ft 424 kts 319°
2026-04-20 20:45 28.62290 -82.54196 43213 ft 425 kts 319°
2026-04-20 20:46 28.67111 -82.58086 43200 ft 425 kts 319°
2026-04-20 20:46 28.71935 -82.61983 43208 ft 425 kts 319°
2026-04-20 20:47 28.76760 -82.65884 43222 ft 426 kts 319°
2026-04-20 20:47 28.81585 -82.69790 43209 ft 424 kts 319°
2026-04-20 20:48 28.86373 -82.73671 43198 ft 421 kts 319°
2026-04-20 20:48 28.91139 -82.77540 43195 ft 422 kts 319°
2026-04-20 20:49 28.95939 -82.81439 43202 ft 425 kts 319°
2026-04-20 20:49 29.00770 -82.85369 43207 ft 428 kts 319°
2026-04-20 20:50 29.05607 -82.89306 43196 ft 426 kts 319°
2026-04-20 20:50 29.10406 -82.93218 43198 ft 419 kts 319°
2026-04-20 20:51 29.15137 -82.97082 43190 ft 419 kts 319°
2026-04-20 20:51 29.19908 -83.00982 43199 ft 424 kts 319°
2026-04-20 20:52 29.24707 -83.04907 43206 ft 423 kts 319°
2026-04-20 20:52 29.29477 -83.08814 43202 ft 420 kts 319°
2026-04-20 20:53 29.34220 -83.12703 43204 ft 418 kts 319°
2026-04-20 20:53 29.38952 -83.16591 43202 ft 419 kts 319°
2026-04-20 20:54 29.43681 -83.20476 43207 ft 418 kts 319°
2026-04-20 20:54 29.48399 -83.24359 43206 ft 417 kts 319°
2026-04-20 20:55 29.53113 -83.28244 43203 ft 417 kts 319°
2026-04-20 20:55 29.57794 -83.32105 43207 ft 417 kts 319°
2026-04-20 20:56 29.62504 -83.35996 43207 ft 417 kts 319°
2026-04-20 20:56 29.67215 -83.39890 43233 ft 417 kts 319°
2026-04-20 20:57 29.71910 -83.43776 43218 ft 414 kts 319°
2026-04-20 20:57 29.76566 -83.47636 43215 ft 413 kts 319°
2026-04-20 20:58 29.81242 -83.51517 43232 ft 416 kts 319°
2026-04-20 20:58 29.85949 -83.55426 43242 ft 417 kts 319°
2026-04-20 20:59 29.90647 -83.59330 43247 ft 415 kts 319°
2026-04-20 20:59 29.95322 -83.63221 43247 ft 414 kts 319°
2026-04-20 21:00 29.99974 -83.67095 43250 ft 410 kts 319°
2026-04-20 21:00 30.04580 -83.70939 43245 ft 408 kts 319°
2026-04-20 21:01 30.09204 -83.74801 43250 ft 412 kts 319°
2026-04-20 21:01 30.13859 -83.78692 43256 ft 415 kts 319°
2026-04-20 21:02 30.18187 -83.83005 43255 ft 407 kts 310°
2026-04-20 21:02 30.21764 -83.88010 43255 ft 402 kts 306°
2026-04-20 21:03 30.25231 -83.93013 43243 ft 401 kts 306°
2026-04-20 21:03 30.28700 -83.98065 43266 ft 400 kts 306°
2026-04-20 21:04 30.32149 -84.03076 43260 ft 397 kts 306°
2026-04-20 21:04 30.35584 -84.08083 43259 ft 398 kts 306°
2026-04-20 21:05 30.39045 -84.13128 43263 ft 401 kts 306°
2026-04-20 21:05 30.42521 -84.18203 43264 ft 402 kts 306°
2026-04-20 21:06 30.45984 -84.23265 43254 ft 399 kts 306°
2026-04-20 21:06 30.49422 -84.28299 43250 ft 397 kts 306°
2026-04-20 21:07 30.52852 -84.33326 43251 ft 399 kts 306°
2026-04-20 21:07 30.56267 -84.38445 43277 ft 402 kts 303°
2026-04-20 21:08 30.59466 -84.43763 43280 ft 400 kts 303°
2026-04-20 21:08 30.62653 -84.49028 43281 ft 397 kts 303°
2026-04-20 21:09 30.65809 -84.54280 43276 ft 397 kts 303°
2026-04-20 21:09 30.68961 -84.59512 43278 ft 399 kts 303°
2026-04-20 21:10 30.72145 -84.64814 43280 ft 401 kts 303°
2026-04-20 21:10 30.75346 -84.70147 43270 ft 403 kts 303°
2026-04-20 21:11 30.78550 -84.75494 43268 ft 402 kts 303°
2026-04-20 21:11 30.81729 -84.80806 43266 ft 399 kts 303°
2026-04-20 21:12 30.84885 -84.86088 43259 ft 397 kts 303°
2026-04-20 21:12 30.88050 -84.91391 43268 ft 400 kts 303°
2026-04-20 21:13 30.91216 -84.96703 43269 ft 399 kts 303°
2026-04-20 21:13 30.94370 -85.02001 43276 ft 398 kts 303°
2026-04-20 21:14 30.97513 -85.07289 43268 ft 397 kts 303°
2026-04-20 21:14 31.00124 -85.11687 43278 ft 397 kts 303°
2026-04-20 21:15 31.03272 -85.16996 43285 ft 399 kts 303°
2026-04-20 21:15 31.06428 -85.22326 43288 ft 400 kts 302°
2026-04-20 21:16 31.09589 -85.27671 43264 ft 401 kts 302°
2026-04-20 21:16 31.12756 -85.33033 43299 ft 402 kts 302°
2026-04-20 21:17 31.15923 -85.38404 43303 ft 401 kts 302°
2026-04-20 21:17 31.19061 -85.43731 43284 ft 393 kts 302°
2026-04-20 21:18 31.22165 -85.49012 43294 ft 397 kts 302°
2026-04-20 21:18 31.25308 -85.54361 43297 ft 401 kts 302°
2026-04-20 21:19 31.28450 -85.59718 43252 ft 398 kts 302°
2026-04-20 21:20 31.33109 -85.67675 43251 ft 395 kts 302°
2026-04-20 21:20 31.36220 -85.72999 43250 ft 398 kts 302°
2026-04-20 21:21 31.39353 -85.78364 43258 ft 400 kts 302°
2026-04-20 21:21 31.42486 -85.83739 43262 ft 398 kts 302°
2026-04-20 21:22 31.45593 -85.89076 43260 ft 395 kts 302°
2026-04-20 21:22 31.48673 -85.94376 43272 ft 391 kts 302°
2026-04-20 21:23 31.51707 -85.99602 43272 ft 392 kts 302°
2026-04-20 21:23 31.54782 -86.04908 43280 ft 395 kts 302°
2026-04-20 21:24 31.57876 -86.10249 43290 ft 395 kts 302°
2026-04-20 21:24 31.60950 -86.15567 43293 ft 393 kts 302°
2026-04-20 21:25 31.64009 -86.20866 43271 ft 393 kts 302°
2026-04-20 21:25 31.67099 -86.26226 43278 ft 399 kts 302°
2026-04-20 21:26 31.70204 -86.31617 43274 ft 397 kts 302°
2026-04-20 21:26 31.73277 -86.36962 43251 ft 393 kts 302°
2026-04-20 21:27 31.76336 -86.42291 43265 ft 394 kts 302°
2026-04-20 21:27 31.79396 -86.47627 43275 ft 394 kts 302°
2026-04-20 21:28 31.82456 -86.52972 43281 ft 394 kts 302°
2026-04-20 21:28 31.85513 -86.58318 43270 ft 394 kts 302°
2026-04-20 21:29 31.88559 -86.63654 43272 ft 397 kts 302°
2026-04-20 21:29 31.91640 -86.69057 43271 ft 398 kts 302°
2026-04-20 21:30 31.94722 -86.74471 43246 ft 397 kts 302°
2026-04-20 21:30 31.97790 -86.79866 43234 ft 396 kts 302°
2026-04-20 21:31 32.00844 -86.85244 43218 ft 394 kts 302°
2026-04-20 21:31 32.03889 -86.90617 43250 ft 395 kts 302°
2026-04-20 21:32 32.06935 -86.95996 43234 ft 392 kts 302°
2026-04-20 21:32 32.09973 -87.01371 43246 ft 396 kts 302°
2026-04-20 21:33 32.13044 -87.06810 43258 ft 399 kts 302°
2026-04-20 21:33 32.16101 -87.12232 43273 ft 395 kts 302°
2026-04-20 21:34 32.19131 -87.17615 43268 ft 393 kts 302°
2026-04-20 21:34 32.22164 -87.23010 43257 ft 395 kts 302°
2026-04-20 21:35 32.25217 -87.28449 43299 ft 398 kts 302°
2026-04-20 21:35 32.28259 -87.33876 43286 ft 398 kts 302°
2026-04-20 21:36 32.31315 -87.39335 43283 ft 398 kts 302°
2026-04-20 21:36 32.34367 -87.44797 43317 ft 396 kts 302°
2026-04-20 21:37 32.37387 -87.50206 43318 ft 392 kts 302°
2026-04-20 21:37 32.40399 -87.55612 43313 ft 395 kts 302°
2026-04-20 21:38 32.43430 -87.61057 43327 ft 397 kts 301°
2026-04-20 21:38 32.46475 -87.66537 43326 ft 398 kts 301°
2026-04-20 21:39 32.49504 -87.71995 43309 ft 395 kts 301°
2026-04-20 21:39 32.52531 -87.77459 43320 ft 399 kts 301°
2026-04-20 21:40 32.55588 -87.82984 43329 ft 401 kts 301°
2026-04-20 21:40 32.58635 -87.88498 43332 ft 398 kts 301°
2026-04-20 21:41 32.61657 -87.93976 43331 ft 395 kts 301°
2026-04-20 21:41 32.64643 -87.99396 43326 ft 389 kts 301°
2026-04-20 21:42 32.67561 -88.04701 43332 ft 386 kts 301°
2026-04-20 21:42 32.70511 -88.10074 43340 ft 391 kts 301°
2026-04-20 21:43 32.73495 -88.15513 43338 ft 395 kts 301°
2026-04-20 21:43 32.76483 -88.20966 43352 ft 392 kts 301°
2026-04-20 21:44 32.79446 -88.26385 43338 ft 390 kts 301°
2026-04-20 21:44 32.82391 -88.31777 43345 ft 389 kts 301°
2026-04-20 21:45 32.85343 -88.37192 43343 ft 392 kts 301°
2026-04-20 21:45 32.88316 -88.42650 43372 ft 395 kts 301°
2026-04-20 21:46 32.91277 -88.48095 43304 ft 388 kts 301°
2026-04-20 21:46 32.94214 -88.53507 43319 ft 392 kts 301°
2026-04-20 21:47 32.97171 -88.58961 43331 ft 395 kts 301°
2026-04-20 21:47 33.00135 -88.64436 43271 ft 391 kts 301°
2026-04-20 21:48 33.03070 -88.69865 43268 ft 389 kts 301°
2026-04-20 21:48 33.06009 -88.75311 43244 ft 392 kts 301°
2026-04-20 21:49 33.08971 -88.80806 43243 ft 395 kts 301°
2026-04-20 21:49 33.11939 -88.86320 43226 ft 394 kts 301°
2026-04-20 21:50 33.14891 -88.91816 43236 ft 393 kts 301°
2026-04-20 21:50 33.17841 -88.97313 43273 ft 392 kts 301°
2026-04-20 21:51 33.20773 -89.02786 43269 ft 390 kts 301°
2026-04-20 21:51 33.23690 -89.08239 43326 ft 389 kts 301°
2026-04-20 21:52 33.26611 -89.13707 43321 ft 392 kts 301°
2026-04-20 21:52 33.29550 -89.19217 43319 ft 394 kts 301°
2026-04-20 21:53 33.32497 -89.24751 43298 ft 394 kts 301°
2026-04-20 21:53 33.35442 -89.30290 43293 ft 395 kts 301°
2026-04-20 21:54 33.38367 -89.35798 43310 ft 395 kts 301°
2026-04-20 21:54 33.41311 -89.41351 43320 ft 395 kts 301°
2026-04-20 21:55 33.44256 -89.46914 43312 ft 395 kts 301°
2026-04-20 21:55 33.47198 -89.52480 43307 ft 396 kts 301°
2026-04-20 21:56 33.50138 -89.58052 43312 ft 396 kts 301°
2026-04-20 21:56 33.53078 -89.63631 43319 ft 396 kts 301°
2026-04-20 21:57 33.56018 -89.69220 43324 ft 396 kts 301°
2026-04-20 21:57 33.58956 -89.74812 43319 ft 396 kts 301°
2026-04-20 21:58 33.61892 -89.80410 43313 ft 396 kts 301°
2026-04-20 21:58 33.64828 -89.86015 43317 ft 397 kts 301°
2026-04-20 21:59 33.67763 -89.91628 43312 ft 397 kts 300°
2026-04-20 21:59 33.70691 -89.97236 43318 ft 393 kts 300°
2026-04-20 22:00 33.73571 -90.02763 43302 ft 391 kts 300°
2026-04-20 22:00 33.76484 -90.08359 43322 ft 398 kts 300°
2026-04-20 22:01 33.79413 -90.13993 43324 ft 395 kts 300°
2026-04-20 22:01 33.82306 -90.19571 43308 ft 391 kts 300°
2026-04-20 22:02 33.85193 -90.25144 43308 ft 394 kts 300°
2026-04-20 22:02 33.88100 -90.30763 43312 ft 397 kts 300°
2026-04-20 22:03 33.91000 -90.36378 43316 ft 397 kts 300°
2026-04-20 22:03 33.93907 -90.42014 43301 ft 396 kts 300°
2026-04-20 22:04 33.96818 -90.47670 43314 ft 397 kts 300°
2026-04-20 22:04 33.99714 -90.53303 43313 ft 394 kts 300°
2026-04-20 22:05 34.02586 -90.58899 43312 ft 392 kts 300°
2026-04-20 22:05 34.04975 -90.63560 43314 ft 394 kts 300°
2026-04-20 22:06 34.07865 -90.69208 43318 ft 397 kts 300°
2026-04-20 22:06 34.10769 -90.74891 43321 ft 398 kts 300°
2026-04-20 22:07 34.13661 -90.80560 43306 ft 396 kts 300°
2026-04-20 22:07 34.16547 -90.86226 43304 ft 396 kts 300°
2026-04-20 22:08 34.19430 -90.91895 43305 ft 396 kts 300°
2026-04-20 22:08 34.22310 -90.97566 43311 ft 396 kts 300°
2026-04-20 22:09 34.25181 -91.03230 43312 ft 394 kts 300°
2026-04-20 22:09 34.28036 -91.08873 43313 ft 393 kts 300°
2026-04-20 22:10 34.30885 -91.14511 43311 ft 394 kts 300°
2026-04-20 22:10 34.33757 -91.20203 43311 ft 400 kts 300°
2026-04-20 22:11 34.36640 -91.25925 43320 ft 400 kts 300°
2026-04-20 22:11 34.39518 -91.31648 43314 ft 396 kts 300°
2026-04-20 22:12 34.42371 -91.37331 43303 ft 396 kts 300°
2026-04-20 22:12 34.45241 -91.43058 43307 ft 399 kts 300°
2026-04-20 22:13 34.48126 -91.48821 43300 ft 399 kts 299°
2026-04-20 22:13 34.50973 -91.54517 43288 ft 392 kts 299°
2026-04-20 22:14 34.53823 -91.60235 43290 ft 400 kts 299°
2026-04-20 22:14 34.56715 -91.66038 43298 ft 401 kts 299°
2026-04-20 22:15 34.59579 -91.71800 43294 ft 397 kts 299°
2026-04-20 22:15 34.62401 -91.77484 43291 ft 396 kts 299°
2026-04-20 22:16 34.65255 -91.83244 43295 ft 400 kts 299°
2026-04-20 22:16 34.68127 -91.89048 43297 ft 401 kts 299°
2026-04-20 22:17 34.70992 -91.94848 43286 ft 400 kts 299°
2026-04-20 22:17 34.73849 -92.00641 43295 ft 399 kts 299°
2026-04-20 22:18 34.76689 -92.06409 43288 ft 396 kts 299°
2026-04-20 22:18 34.79512 -92.12153 43282 ft 396 kts 299°
2026-04-20 22:19 34.82181 -92.18029 43278 ft 398 kts 295°
2026-04-20 22:19 34.84700 -92.24057 43283 ft 401 kts 296°
2026-04-20 22:20 34.87211 -92.30101 43264 ft 399 kts 295°
2026-04-20 22:20 34.89716 -92.36143 43269 ft 401 kts 295°
2026-04-20 22:21 34.92236 -92.42222 43266 ft 403 kts 295°
2026-04-20 22:21 34.94762 -92.48336 43265 ft 403 kts 295°
2026-04-20 22:22 34.97273 -92.54421 43268 ft 401 kts 295°
2026-04-20 22:22 34.99759 -92.60455 43265 ft 396 kts 295°
2026-04-20 22:23 35.02227 -92.66459 43262 ft 397 kts 295°
2026-04-20 22:23 35.04717 -92.72526 43265 ft 403 kts 295°
2026-04-20 22:24 35.07215 -92.78623 43272 ft 404 kts 295°
2026-04-20 22:24 35.09708 -92.84720 43270 ft 399 kts 295°
2026-04-20 22:25 35.12180 -92.90776 43257 ft 399 kts 295°
2026-04-20 22:25 35.14666 -92.96879 43267 ft 403 kts 295°
2026-04-20 22:26 35.17165 -93.03020 43260 ft 403 kts 295°
2026-04-20 22:26 35.19650 -93.09147 43250 ft 402 kts 295°
2026-04-20 22:27 35.23382 -93.18362 43262 ft 403 kts 295°
2026-04-20 22:27 35.25864 -93.24503 43261 ft 402 kts 295°
2026-04-20 22:28 35.28339 -93.30640 43266 ft 402 kts 295°
2026-04-20 22:28 35.30807 -93.36771 43259 ft 401 kts 295°
2026-04-20 22:29 35.31207 -93.37766 43259 ft 401 kts 295°